Location: Pedholt
(56.0260°N, 10.2097°E)
Time: 20:25:22
(UTC+00:00)

Tiros 1 - Pass Details

Date: 06 August 2021
Orbit: 630 x 663 km, 48.4° (Epoch: 19 September)

Event Time Altitude Azimuth Distance (km) Brightness Sun altitude
Rises 20:13:02 0° 269° (W) 2,981 11.3 -7.1°
Reaches altitude 10° 20:15:52 10° 253° (WSW) 2,062 10.1 -7.4°
Maximum altitude 20:19:22 21° 205° (SSW) 1,471 8.8 -7.7°
Drops below altitude 10° 20:22:50 10° 158° (SSE) 2,040 9.1 -8.1°
Enters shadow 20:23:08 - 155° (SSE) 2,130 9.2 -8.1°
Sets 20:25:37 0° 142° (SE) 2,941 - -8.3°
